TimeCST,TemperatureF,Dew PointF,Humidity,Sea Level PressureIn,VisibilityMPH,Wind Direction,Wind SpeedMPH,Gust SpeedMPH,PrecipitationIn,Events,Conditions,WindDirDegrees,DateUTC
12:53 AM,42.1,23.0,47,30.11,10.0,Calm,Calm,-,N/A,,Scattered Clouds,0,2014-02-22 06:53:00
1:53 AM,39.9,28.0,63,30.10,10.0,Calm,Calm,-,N/A,,Scattered Clouds,0,2014-02-22 07:53:00
2:53 AM,37.0,26.1,65,30.09,10.0,Calm,Calm,-,N/A,,Scattered Clouds,0,2014-02-22 08:53:00
3:53 AM,36.0,28.0,73,30.08,10.0,Calm,Calm,-,N/A,,Scattered Clouds,0,2014-02-22 09:53:00
4:53 AM,35.1,28.9,78,30.08,10.0,Calm,Calm,-,N/A,,Scattered Clouds,0,2014-02-22 10:53:00
5:53 AM,34.0,28.0,79,30.08,10.0,Calm,Calm,-,N/A,,Scattered Clouds,0,2014-02-22 11:53:00
6:53 AM,35.1,27.0,72,30.08,10.0,Calm,Calm,-,N/A,,Partly Cloudy,0,2014-02-22 12:53:00
7:53 AM,37.9,30.9,76,30.09,10.0,Calm,Calm,-,N/A,,Partly Cloudy,0,2014-02-22 13:53:00
8:53 AM,48.9,27.0,43,30.09,10.0,SW,3.5,-,N/A,,Partly Cloudy,230,2014-02-22 14:53:00
9:53 AM,57.0,25.0,29,30.08,10.0,SSW,6.9,-,N/A,,Partly Cloudy,200,2014-02-22 15:53:00
10:53 AM,63.0,25.0,24,30.06,10.0,South,8.1,17.3,N/A,,Partly Cloudy,190,2014-02-22 16:53:00
11:53 AM,66.9,24.1,20,30.04,10.0,SW,12.7,-,N/A,,Partly Cloudy,220,2014-02-22 17:53:00
12:53 PM,68.0,25.0,20,29.99,10.0,South,12.7,20.7,N/A,,Partly Cloudy,190,2014-02-22 18:53:00
1:53 PM,70.0,24.1,18,29.95,10.0,South,16.1,23.0,N/A,,Partly Cloudy,180,2014-02-22 19:53:00
2:53 PM,70.0,23.0,17,29.93,10.0,South,16.1,23.0,N/A,,Partly Cloudy,190,2014-02-22 20:53:00
3:53 PM,70.0,25.0,18,29.92,10.0,South,12.7,-,N/A,,Scattered Clouds,170,2014-02-22 21:53:00
4:53 PM,68.0,26.1,21,29.90,10.0,South,11.5,-,N/A,,Partly Cloudy,170,2014-02-22 22:53:00
5:53 PM,63.0,28.0,27,29.89,10.0,SSE,6.9,-,N/A,,Scattered Clouds,160,2014-02-22 23:53:00
6:53 PM,54.0,34.0,47,29.91,10.0,ESE,8.1,-,N/A,,Clear,120,2014-02-23 00:53:00
7:53 PM,55.0,36.0,49,29.92,10.0,SSE,5.8,-,N/A,,Clear,150,2014-02-23 01:53:00
8:53 PM,52.0,37.0,57,29.94,10.0,SSE,4.6,-,N/A,,Partly Cloudy,160,2014-02-23 02:53:00
9:53 PM,46.9,35.1,63,29.95,10.0,SSE,4.6,-,N/A,,Partly Cloudy,150,2014-02-23 03:53:00
10:53 PM,50.0,32.0,50,29.95,10.0,Calm,Calm,-,N/A,,Partly Cloudy,0,2014-02-23 04:53:00
11:53 PM,46.9,33.1,59,29.96,10.0,SSE,3.5,-,N/A,,Partly Cloudy,160,2014-02-23 05:53:00